SCP
-0 0 0 0 0 0 0 0 0 0 0 0 0 0 0 0 0 0 0 0 0 0 0 0 0 0 0 0 0 0 0 0 0 0 0 0 0 0 0 0 0 0 0
0 0 0 0 0 0 0 0 0 0 0 0 0 0 0 0 0 0 0 0 0 0 0 0 0 0 0 0 0 0 0 0 0 0 0 0 0 0 0 0 0 0 0
0 0 0 0 0 0 0 0 0 0 0 0 0 0 0 0 0 0 0 0 0 0 0 0 0 0 0 0 0 0 0 0 0 0 0 0 0 0 0 0 0 0 0
0 0 0 0 0 0 0 0 0 0 0 0 0 0 0 0 0 0 0 0 0 0 0 0 0 0 0 0 0 0 0 0 0 0 0 0 0 0 0 0 0 0 0
0 0 0 0 0 0 0 0 0 0 0 0 0 0 0 0 0 0 0 0 0 0 0 0 0 0 0 0 0 0 0 0 0 0 0 0 0 0 0 0 0 0 0
0 0 0 0 0 0 0 0 0 0 0 0 0 0 0 0 0 0 0 0 0 0 0 0 0 0 0 0 0 0 0 0 0 0 0 0 0 0 0 0 0 0 0
0 0 0 0 0 0 0 0 0 0 0 0 0 0 0 0 0 0 0 0 0 0 0 0 0 0 0 0 0 0 0 0 0 0 0 0 0 0 0 0 0 0 0
0 0 0 0 0 0 0 0 0 -0 -0 0 0 0 0 0 0 0 0 0 0 0 0 0 0 0 0 0 0 0 0 0 0 0 0 0 0 0 0 0 0 0 0
0 0 0 0 0 0 0 0 0 -0 -0 -0 0 0 0 0 0 0 0 0 0 0 0 0 0 0 0 0 0 0 0 0 0 0 0 0 0 0 0 0 0 0 0
0 0 0 0 0 0 0 0 0 -0 -0 -0 0 0 0 0 0 0 0 0 0 0 0 0 0 0 0 0 0 0 0 0 0 0 0 0 0 0 0 0 0 0 0
0 0 0 0 0 0 0 0 0 0 -0 -0 0 0 0 0 0 0 0 0 0 0 0 0 0 0 0 0 0 0 0 0 0 0 0 0 0 0 0 0 0 0 0
0 0 0 0 0 0 0 0 0 0 0 0 0 0 0 0 0 0 0 0 0 0 0 0 0 0 0 0 0 0 0 0 0 0 0 0 0 0 0 0 0 0 0
0 0 0 0 0 0 0 0 0 0 0 0 0 0 0 0 0 0 0 0 0 0 0 0 0 0 0 0 0 0 0 0 0 0 0 0 0 0 0 0 0 0 0
0 0 0 0 0 0 0 0 0 0 0 0 0 0 0 0 0 0 0 0 0 0 0 0 0 0 0 0 0 0 0 0 0 0 0 0 0 0 0 0 0 0 0
0 0 0 0 0 0 0 0 0 0 0 0 0 0 0 0 0 0 0 0 0 0 0 0 0 0 0 0 0 0 0 0 0 0 0 0 0 0 0 0 0 0 0
0 0 0 0 0 0 0 0 0 0 0 0 0 0 0 0 0 0 0 0 0 0 0 0 0 0 0 0 0 0 0 0 0 0 0 0 0 0 0 0 0 0 0
0 0 0 0 0 0 0 0 0 0 0 0 0 0 0 0 0 0 -0 0 0 0 0 0 0 0 0 0 0 0 0 0 0 0 0 0 0 0 0 0 0 0 0
0 0 0 0 0 0 0 0 0 0 0 0 0 0 0 0 0 0 -0 0 0 0 0 0 0 0 0 0 0 0 0 0 0 0 0 0 0 0 0 0 0 0 0
0 0 0 0 0 0 0 0 0 0 0 0 0 0 0 0 0 0 0 0 0 0 0 0 0 0 0 0 0 0 0 0 0 0 0 0 0 0 0 0 0 0 0
0 0 0 0 0 0 0 0 0 0 0 0 0 0 0 0 0 0 0 0 0 0 0 0 0 0 0 0 0 0 0 0 0 0 0 0 0 0 0 0 0 0 0
0 0 0 0 0 0 0 0 0 0 0 0 0 0 0 0 0 0 0 0 0 0 0 0 0 0 0 0 0 0 0 0 0 0 0 0 0 0 0 0 0 0 0
0 0 0 0 0 0 0 0 0 0 0 0 0 0 0 0 0 0 0 0 0 0 0 0 0 0 0 0 0 0 0 0 0 0 0 0 0 0 0 0 0 0 0
0 0 0 0 0 0 0 0 0 0 0 0 0 0 0 0 0 0 0 0 0 0 0 0 0 0 0 0 0 0 0 0 0 0 0 0 0 0 0 0 0 0 0
0 0 0 0 0 0 0 0 0 0 0 0 0 0 0 0 0 0 0 0 0 0 0 0 0 0 0 0 0 0 0 0 0 0 0 0 0 0 0 0 0 0 0
0 0 0 0 0 0 0 0 0 0 0 0 0 0 0 0 0 0 0 0 0 0 0 0 0 0 0 0 0 0 0 0 0 0 -0 0 0 0 0 0 0 0 0
0 0 0 0 0 0 0 0 0 0 0 0 0 0 0 0 0 0 0 0 0 0 0 0 0 0 0 0 0 0 0 0 0 0 -0 0 0 0 0 0 0 0 0
Wind_Speed
5 6 6 7 7 7 7 7 7 7 6 4 4 4 4 4 3 3 4 4 4 4 3 3 3 3 4 5 5 4 4 4 2 2 0 1 1 2 3 3 4 5 5
6 7 7 7 7 7 7 7 7 7 7 5 4 3 4 3 3 3 4 4 4 4 3 3 3 3 3 5 5 5 4 3 4 4 2 1 1 1 2 2 4 5 4
6 7 7 7 7 7 8 8 8 8 7 7 5 4 3 3 3 3 3 4 4 4 3 4 3 3 4 4 6 6 7 5 4 4 4 4 4 2 1 3 3 4 4
5 6 7 8 8 7 7 7 8 7 7 6 5 6 4 4 4 3 3 5 4 4 3 3 4 4 4 4 5 6 5 5 4 3 3 2 3 3 2 1 2 3 5
5 6 7 7 7 7 7 7 8 7 7 7 6 6 5 4 4 4 4 4 4 4 4 3 3 3 3 4 5 5 6 5 5 4 4 3 2 2 3 2 2 1 2
5 6 6 6 6 6 7 7 8 8 7 7 7 6 6 6 6 5 5 4 4 3 4 4 3 3 3 4 5 5 6 6 6 5 4 4 4 4 3 3 2 2 2
5 6 7 7 7 7 7 7 7 8 8 8 7 7 6 6 5 5 5 5 4 3 5 4 3 3 3 4 4 5 5 6 6 6 5 4 4 3 4 3 2 2 1
5 5 6 6 6 7 7 7 7 7 7 7 7 7 7 4 4 4 4 4 4 4 5 5 4 4 3 3 3 3 4 4 6 7 6 4 5 4 4 4 4 3 1
5 5 6 5 5 6 6 6 6 7 7 7 7 7 7 6 6 5 5 4 4 4 5 5 5 4 4 3 2 2 3 3 4 5 5 4 4 4 4 3 4 5 4
5 5 5 5 5 5 5 5 5 5 5 6 6 6 7 7 6 6 7 7 7 6 7 6 6 5 4 4 2 1 2 3 3 3 4 4 3 4 3 3 3 3 4
6 5 5 4 4 4 4 4 5 5 5 6 6 6 6 6 6 6 7 6 6 7 7 7 6 6 6 5 3 2 1 2 2 3 4 4 4 4 4 3 3 3 3
5 5 5 4 4 4 4 4 4 4 4 5 5 6 6 6 7 7 7 7 7 7 7 6 6 6 6 6 5 4 2 1 1 2 3 4 3 4 4 3 4 3 4
5 4 4 4 4 4 4 4 3 3 4 4 5 5 6 6 7 7 7 7 7 7 7 7 7 7 6 6 5 4 4 4 2 2 2 3 4 4 3 3 3 3 3
5 4 4 4 4 4 3 3 3 3 3 4 4 5 6 6 6 6 6 7 7 7 7 7 7 6 6 5 5 5 4 4 4 3 2 1 2 3 3 3 3 3 4
5 5 5 4 4 3 3 2 2 2 2 3 4 4 5 5 5 6 6 6 7 7 6 7 7 7 5 5 5 4 4 4 4 3 2 1 2 3 3 3 3 4 3
6 6 5 5 4 4 3 2 2 2 1 2 3 4 5 5 5 6 6 6 7 7 7 7 7 7 6 9 9 6 4 4 4 3 3 2 3 2 2 3 5 5 5
7 6 5 5 5 4 4 3 2 1 1 2 3 4 4 4 5 5 6 6 6 6 6 7 7 7 8 11 11 10 5 5 4 4 3 3 3 3 2 3 4 3 3
6 6 5 4 4 3 3 2 1 1 1 2 3 3 4 4 4 5 5 5 4 5 5 6 7 7 9 12 10 9 6 4 4 4 3 3 3 2 3 4 4 3 3
6 6 5 4 3 3 3 2 2 1 1 3 3 3 3 3 4 4 5 4 4 4 4 4 6 7 8 13 11 8 4 4 5 4 4 3 2 4 5 5 5 4 3
5 5 4 3 3 3 3 3 3 2 4 4 4 3 2 2 3 3 3 3 2 3 4 4 5 6 7 12 12 9 3 4 4 4 4 5 4 4 5 3 4 4 3
6 5 5 4 4 4 5 4 4 5 5 3 3 3 2 2 2 2 2 2 2 3 4 4 4 5 7 10 12 10 4 3 3 3 4 4 5 6 6 4 3 4 4
5 5 5 5 4 5 6 5 6 6 4 3 3 3 3 2 1 1 2 2 2 3 3 4 4 4 5 7 9 11 8 5 3 3 3 3 5 6 5 4 5 8 7
6 5 6 5 4 5 6 7 7 5 4 3 4 3 3 2 1 1 1 1 1 2 2 3 3 4 4 5 10 10 9 8 3 2 4 5 6 6 5 6 7 6 4
6 5 5 6 6 6 7 8 6 4 5 5 5 4 3 3 2 1 1 1 1 1 2 2 2 3 3 3 4 4 4 5 4 3 4 6 7 5 5 5 5 3 3
5 5 6 7 8 6 7 8 6 6 6 6 5 4 4 4 3 3 3 3 4 4 3 2 2 2 3 4 6 4 3 2 1 1 2 3 3 3 3 3 3 3 3
5 5 7 8 8 7 7 7 7 7 7 6 6 5 4 4 3 3 3 6 7 8 9 8 5 4 6 7 7 6 5 3 1 2 2 1 1 1 1 2 2 2 2
Wind_Direction
316 327 328 329 332 335 337 333 334 332 336 332 329 321 314 307 303 293 291 291 284 273 251 251 239 222 220 218 207 191 193 194 158 150 273 315 282 220 216 201 193 197 197
328 331 331 335 335 331 331 332 334 332 334 327 310 288 287 290 285 296 304 296 290 281 263 241 236 225 224 223 213 193 179 187 173 164 152 219 293 274 230 201 204 205 192
318 321 326 329 331 332 331 334 330 329 330 331 324 318 315 311 320 322 315 309 302 288 272 260 245 230 220 223 216 205 190 189 184 179 166 169 206 226 258 217 206 194 193
313 315 320 325 328 327 328 331 332 331 331 335 339 341 337 324 309 309 304 309 310 306 292 273 252 236 226 226 223 214 204 185 182 186 198 179 157 164 199 267 217 198 200
302 309 315 315 318 324 330 333 336 337 337 341 342 340 334 319 314 317 320 323 322 314 310 293 269 249 235 230 225 216 206 197 188 179 176 175 168 171 162 191 204 207 211
302 308 312 316 318 326 334 337 341 338 341 345 345 344 338 333 333 336 336 332 326 319 322 309 287 267 250 236 227 219 208 207 201 194 183 170 169 181 169 169 179 196 208
299 306 313 320 324 328 331 335 341 338 341 347 348 345 340 336 336 335 332 332 332 328 329 326 309 291 272 250 228 218 215 208 203 201 199 190 185 164 160 159 160 169 179
294 297 300 308 315 320 328 336 339 337 343 349 348 347 348 345 341 340 341 336 329 324 329 330 325 316 306 282 239 224 217 207 207 206 196 189 194 182 172 167 158 155 172
287 293 302 308 311 318 324 330 336 341 345 348 348 353 358 360 355 353 351 347 344 341 345 340 340 338 336 326 268 230 223 204 204 204 197 193 191 184 181 171 165 163 180
287 295 302 305 308 311 318 332 341 341 343 349 352 357 358 0 0 4 5 0 353 351 352 355 356 356 351 341 326 269 229 204 200 192 187 190 180 174 178 178 175 172 171
278 285 293 302 308 318 326 335 342 346 348 350 350 355 354 356 1 6 1 356 355 356 358 358 1 3 3 357 355 349 289 204 193 188 185 187 177 171 174 178 175 176 167
272 279 288 304 316 323 327 331 337 342 342 345 351 354 354 357 3 360 354 354 358 358 359 357 2 4 5 4 7 8 16 63 147 172 175 175 164 170 165 171 177 178 177
278 288 293 297 302 309 315 322 328 329 336 350 357 357 357 359 358 354 352 356 358 357 359 2 4 1 0 2 6 13 27 39 53 78 124 146 150 164 153 159 175 178 175
268 276 280 281 285 291 297 309 316 325 338 355 0 358 352 351 349 350 355 357 358 360 360 359 358 356 356 2 9 21 35 40 43 45 66 107 144 162 158 171 180 171 168
261 262 263 270 276 281 285 296 307 322 342 356 356 346 342 348 354 356 355 357 1 3 357 360 360 358 359 7 14 22 35 39 40 31 28 58 111 159 170 169 175 171 167
250 255 261 263 262 258 258 268 280 298 329 344 340 339 348 355 356 353 353 359 1 359 3 5 1 3 3 9 25 30 31 33 41 36 21 34 48 65 120 149 166 174 173
242 243 248 250 251 246 234 233 241 270 318 324 331 338 345 351 351 353 358 358 355 358 3 2 3 1 357 19 31 36 38 36 35 32 29 40 40 53 77 91 106 123 152
233 235 236 243 246 236 218 206 193 224 287 308 320 329 340 343 348 357 358 352 350 357 359 1 360 360 4 18 29 39 39 38 32 24 27 41 32 48 94 97 86 72 63
218 221 221 221 225 223 203 176 189 229 270 287 298 309 324 334 344 352 347 345 351 358 1 358 3 4 359 14 29 37 28 34 28 20 20 24 40 59 89 100 101 86 65
208 210 208 204 215 217 176 176 208 232 253 262 275 293 306 316 326 332 332 336 344 347 357 5 3 3 358 7 22 28 26 28 19 15 14 23 47 64 79 99 111 105 86
203 197 191 204 219 195 171 194 215 233 242 251 270 289 296 294 300 326 335 337 349 359 3 2 357 1 1 2 15 22 24 16 18 19 9 8 39 63 72 80 90 110 109
199 189 194 220 222 187 180 206 228 235 233 237 256 273 285 293 319 338 340 351 359 3 358 354 351 351 353 358 7 20 25 22 26 11 354 5 43 63 75 81 98 103 97
205 195 198 221 227 201 192 212 233 221 213 227 246 258 272 276 278 280 309 334 350 347 340 347 343 335 340 350 6 14 19 20 24 3 15 37 50 54 63 80 91 91 91
211 201 199 219 234 218 210 222 228 204 202 225 242 246 251 261 258 246 239 247 269 290 307 316 320 323 329 341 348 350 356 7 18 13 20 42 52 55 60 65 63 65 85
216 201 206 222 235 227 222 226 217 196 207 225 236 240 238 242 249 245 232 228 229 212 223 241 247 280 308 305 324 335 332 333 339 25 32 30 29 42 46 50 55 60 76
221 217 222 230 239 232 232 230 208 195 203 222 231 228 228 232 232 244 267 242 234 243 237 229 222 236 250 283 313 330 334 334 59 81 66 53 43 54 65 82 72 65 83